Погода Канадей

Погода Канадей : погода сейчас, прогноз погоды и архив. Всё, что Вы хотите узнать о погоде Канадей!

Поиск расширенной информации на нашем сайте:

Другие новости

Новости СМИ2

Главная страница сайта

Новости сайта

03.07.2017

Напоминаем, что на нашем специализированном сайте Метеоцентр.Азия вы можете получить высокодетализированные автоматические прогнозы погоды по пунктам России, СНГ и мира в авиационном формате (включающие направление и скорость ветра, видимость, явления погоды, количество и форму облачности, нижнюю и верхнюю границу облачности).


Погода Канадей - сегодня

Время (UTC), дата Ветер
(°,м/с) 
Видим.   Явления Облачность Т
(°С)
Тd
(°С)
f(%) Тe
(°С)
Pmin
(гПа)
dP
(гПа)
Po
(мм)
O2
(г/м3)
Тmin Tmax R s Состояние
почвы
12 13.08.18 240 (ЮЗ) 20000 м    10/3 600 м средняя, верхняя 
[Sc|Ac trans|Ci]
+31.9 +8.9 24 +32  1008.5  -1.6  748  268           
18 13.08.18 320 (СЗ) 10 км    5/0 верхняя 
[Ci sp]
+22.3 +10.2 46 +24  1009.2  1.3  748  277           
21 13.08.18 300 (СЗ) 10 км    ясно 
+16.5 +10.5 68 +19  1010.3  1.3  749  283           
00 14.08.18 300 (СЗ) 10 км    ясно 
+12.6 +9.5 81 +14  1011.3  0.8  750  287           
06 14.08.18 320 (СЗ) 20000 м    10/0 средняя, верхняя 
[Ac trans|Cc]
+20.6 +8.4 45 +21  1012.7  0.9  751  280           
18 14.08.18 тихо ()   10 км    ясно 
+16.9 +9.5 62 +17  1015.6  2.1  753  284           
21 14.08.18 290 (З) 10 км    ясно 
+11.5 +8.1 80 +12  1017.3  1.4  754  290           
00 15.08.18 300 (СЗ) 10 км    ясно 
+7.9 +6.5 91 +8  1018.7  1.2  755  295           
06 15.08.18 240 (ЮЗ) 20000 м    10/0 верхняя 
[Ci]
+21.5 +9 45 +22  1019.6  0.4  756  281           
09 15.08.18 290 (З) 20000 м    10/0 средняя, верхняя 
[Ac trans|Ci]
+26.4 +5 25 +26  1018.5  -0.9  755  277           
12 15.08.18 260 (З) 20000 м    9/0 средняя, верхняя 
[Ac trans|Ci]
+27.9 +4.6 23 +28  1017.4  -1  755  275           
18 15.08.18 300 (СЗ) 10 км    ясно 
+18.1 +7 48 +20  1017.6  0.2  754  284           
21 15.08.18 тихо ()   10 км    ясно 
+14.1 +7.7 65 +14  1018.1  0.3  755  288           
00 16.08.18 140 (ЮВ) 10 км    ясно 
+10.9 +7.2 78 +12  1017.9  -0.2  755  291           
06 16.08.18 250 (З) 20000 м    3/0 верхняя 
[Ci sp]
+26.6 +8.5 32 +27  1016.3  -1  754  275           
09 16.08.18 250 (З) 20000 м    10/0 средняя, верхняя 
[Ac trans|Cc]
+31.1 +9.3 26 +31  1014.8  -1.3  753  271           
21 16.08.18 320 (СЗ) 10 км    10/0 верхняя 
[Ci]
+18.8 +15.7 82 +30  1015.8  0.9  753  281           
00 17.08.18 320 (СЗ) 10 км    10/3 600 м верхняя 
[Sc|Ci]
+16 +15 94 +26  1016.4  0.5  754  284           
06 17.08.18 050 (СВ) 20000 м    10/10 720 м кучево-дожд. 
[Cb cap]
+18.9 +15.2 79 +29  1018.4  1.2  755  281           
09 17.08.18 040 (СВ) 20000 м    10/10 720 м кучево-дожд. 
[Cb cap]
+19.1 +12.6 66 +25  1019.2  0.7  756  282           
18 17.08.18 020 (С) 10 км    5/0 верхняя 
[Ci sp]
+16.6 +7 53 +17  1019.6  0.9  756  286           
21 17.08.18 260 (З) 10 км    ясно 
+10.4 +7 79 +12  1020.6  0.8  756  292           
00 18.08.18 320 (СЗ) 10 км    ясно 
+9.1 +7.7 91 +10  1021.5  0.8  757  294           
06 18.08.18 030 (СВ) 20000 м    ясно 
+18.8 +5.9 43 +19  1022.4  0.4  758  285           
09 18.08.18 050 (СВ) 20000 м    6/3 600 м средняя 
[Sc|Ac trans]
+21.4 +5.3 35 +21  1021.3  -1  757  282           
Время (UTC), дата Ветер
(°,м/с) 
Видим.   Явления Облачность Т
(°С)
Тd
(°С)
f(%) Тe
(°С)
Pmin
(гПа)
dP
(гПа)
Po
(мм)
O2
(г/м3)
Тmin Tmax R s Состояние
почвы

Для получения пояснительной информации подведите курсор к названию столбца.

ПОГОДА Канадей - архив

Всё, что Вы хотите узнать о погоде Канадей - удобно и подробно!

Выберите нужную дату (начиная с 1 января 2015* года) и нажмите кнопку "Найти".
Будут отображены архивные сводки погоды по пункту Канадей, начиная с указанной даты.


Отображать данные в формате CSV (для использования в таблицах Excel)


Внимание! Наш архив погоды предназначен исключительно для личного некоммерческого использования в познавательных целях. Если Вам необходимы официальные справки о состоянии погоды (для производственных, юридических, коммерческих и т.п. целей), обращайтесь в органы Росгидромета.

*Примечание: данная дата относится к архиву по метеостанциям СССР (Россия, СНГ, Балтия).
Архив по метеостанциям Зарубежной Европы и Азии (кроме Китая) хранится 10 дней, по другим регионам земного шара (Китай, Африка, Америка, Австралия, Океания) - 1 день.

Канадей - район местоположения метеостанции


Название, широта, долгота, высота метеостанции:
Канадей 53.1°ш. 47.5°д. 103 м над ур. моря [Российская Федерация]

Дополнительная информация

В oтличие oт бoльшинства пoгoдных сайтoв мы публикуем пoдрoбную метеoинфoрмацию в детальнoм прoфессиoнальнoм фoрмате.

Характеристики температуры и влажнoсти вoздуха измеряются на высoте 2 м в тени вдали oт зданий и деревьев.
Скoрoсть ветра измеряется на высoте 10 м (на урoвне рoста челoвека скoрoсть ветра ниже в 1.5-2 раза). Если метеoстанция нахoдится в гoрoде или в лесу, тo скoрoсть ветра занижена на 2-4 м/с пo сравнению с oткрытым местoм. Скoрoсть ветра над акватoриями крупных рек и oзёр, а также на вершинах хoлмoв на 2-5 м/с выше, чем в oбычных услoвиях.
Атмoсфернoе давление в разных тoчках местнoсти мoжет значительнo oтличаться oт давления на метеoстанции, в зависимoсти oт услoвий рельефа (при пoдъёме на 10 м давление пoнижается примернo на 1 мм рт.ст.).